Time,TemperatureF,DewpointF,PressureIn,WindDirection,WindDirectionDegrees,WindSpeedMPH,WindSpeedGustMPH,Humidity,HourlyPrecipIn,Conditions,Clouds,dailyrainin,SoftwareType,DateUTC
2013-10-08 00:00:00,69.6,29.0,29.96,WSW,248,2.0,6.0,22,0.00,CLR,,0.00,WeatherDisplay:10.37,2013-10-08 05:00:00,
2013-10-08 00:30:00,72.3,29.0,29.96,SSW,202,1.0,8.0,20,0.00,CLR,,0.00,WeatherDisplay:10.37,2013-10-08 05:30:00,
2013-10-08 01:00:00,73.3,27.2,29.96,NNW,338,2.0,8.0,18,0.00,CLR,,0.00,WeatherDisplay:10.37,2013-10-08 06:00:00,
2013-10-08 01:30:00,74.9,29.8,29.94,North,0,2.0,7.0,19,0.00,CLR,,0.00,WeatherDisplay:10.37,2013-10-08 06:30:00,
2013-10-08 02:00:00,75.6,27.7,29.93,SE,135,2.0,12.0,17,0.00,CLR,,0.00,WeatherDisplay:10.37,2013-10-08 07:00:00,
2013-10-08 02:30:00,75.4,28.9,29.92,SSW,202,3.0,12.0,18,0.00,CLR,,0.00,WeatherDisplay:10.37,2013-10-08 07:30:00,
2013-10-08 03:00:00,75.4,27.5,29.91,SW,225,2.0,12.0,17,0.00,CLR,,0.00,WeatherDisplay:10.37,2013-10-08 08:00:00,
2013-10-08 03:30:00,76.8,30.1,29.88,WSW,248,2.0,8.0,18,0.00,CLR,,0.00,WeatherDisplay:10.37,2013-10-08 08:30:00,
2013-10-08 04:00:00,77.2,25.9,29.86,WSW,248,5.0,13.0,15,0.00,CLR,,0.00,WeatherDisplay:10.37,2013-10-08 09:00:00,
2013-10-08 04:30:00,77.7,27.9,29.85,WSW,248,3.0,17.0,16,0.00,CLR,,0.00,WeatherDisplay:10.37,2013-10-08 09:30:00,
2013-10-08 05:00:00,78.6,25.4,29.85,SW,225,5.0,13.0,14,0.00,CLR,,0.00,WeatherDisplay:10.37,2013-10-08 10:00:00,
2013-10-08 05:30:00,78.3,23.4,29.85,SSW,202,3.0,14.0,13,0.00,CLR,,0.00,WeatherDisplay:10.37,2013-10-08 10:30:00,
2013-10-08 06:00:00,78.3,21.5,29.84,SW,225,5.0,12.0,12,0.00,CLR,,0.00,WeatherDisplay:10.37,2013-10-08 11:00:00,
2013-10-08 06:30:00,77.9,21.2,29.85,SW,225,5.0,12.0,12,0.00,CLR,,0.00,WeatherDisplay:10.37,2013-10-08 11:30:00,
2013-10-08 07:00:00,76.8,25.6,29.84,SW,225,3.0,12.0,15,0.00,CLR,,0.00,WeatherDisplay:10.37,2013-10-08 12:00:00,
2013-10-08 07:30:00,74.2,25.1,29.86,SSE,158,2.0,8.0,16,0.00,CLR,,0.00,WeatherDisplay:10.37,2013-10-08 12:30:00,
2013-10-08 08:00:00,71.5,30.6,29.87,South,180,3.0,8.0,22,0.00,CLR,,0.00,WeatherDisplay:10.37,2013-10-08 13:00:00,
2013-10-08 08:30:00,69.4,30.0,29.88,SSW,202,3.0,11.0,23,0.00,CLR,,0.00,WeatherDisplay:10.37,2013-10-08 13:30:00,
2013-10-08 09:00:00,68.6,31.3,29.89,South,180,5.0,13.0,25,0.00,CLR,,0.00,WeatherDisplay:10.37,2013-10-08 14:00:00,
2013-10-08 09:30:00,67.8,31.6,29.79,South,180,3.0,11.0,26,0.00,CLR,,0.00,WeatherDisplay:10.37,2013-10-08 14:30:00,
2013-10-08 10:00:00,67.1,32.9,29.80,South,180,8.0,18.0,28,0.00,CLR,,0.00,WeatherDisplay:10.37,2013-10-08 15:00:00,
2013-10-08 10:30:00,66.3,32.2,29.70,South,180,8.0,16.0,28,0.00,CLR,,0.00,WeatherDisplay:10.37,2013-10-08 15:30:00,
2013-10-08 11:00:00,66.0,32.8,29.70,South,180,8.0,19.0,29,0.00,CLR,,0.00,WeatherDisplay:10.37,2013-10-08 16:00:00,
2013-10-08 11:30:00,65.3,31.3,29.69,SSE,158,9.0,21.0,28,0.00,CLR,,0.00,WeatherDisplay:10.37,2013-10-08 16:30:00,
2013-10-08 12:00:00,64.8,30.9,29.69,SSE,158,7.0,19.0,28,0.00,CLR,,0.00,WeatherDisplay:10.37,2013-10-08 17:00:00,
2013-10-08 12:30:00,65.2,31.2,29.68,SSE,158,9.0,19.0,28,0.00,CLR,,0.00,WeatherDisplay:10.37,2013-10-08 17:30:00,
2013-10-08 13:00:00,65.2,31.2,29.68,SSE,158,7.0,20.0,28,0.00,CLR,,0.00,WeatherDisplay:10.37,2013-10-08 18:00:00,
2013-10-08 13:30:00,65.2,31.2,29.66,SSE,158,6.0,18.0,28,0.00,CLR,,0.00,WeatherDisplay:10.37,2013-10-08 18:30:00,
2013-10-08 14:00:00,65.5,31.5,29.66,South,180,7.0,19.0,28,0.00,CLR,,0.00,WeatherDisplay:10.37,2013-10-08 19:00:00,
2013-10-08 14:30:00,65.3,31.3,29.65,SSE,158,8.0,19.0,28,0.00,CLR,,0.00,WeatherDisplay:10.37,2013-10-08 19:30:00,
2013-10-08 15:00:00,65.5,31.5,29.64,SSE,158,8.0,18.0,28,0.00,CLR,,0.00,WeatherDisplay:10.37,2013-10-08 20:00:00,
2013-10-08 15:30:00,65.0,31.1,29.64,South,180,7.0,19.0,28,0.00,CLR,,0.00,WeatherDisplay:10.37,2013-10-08 20:30:00,
2013-10-08 16:00:00,64.5,32.4,29.64,South,180,7.0,14.0,30,0.00,CLR,,0.00,WeatherDisplay:10.37,2013-10-08 21:00:00,
2013-10-08 16:30:00,60.4,33.3,29.67,WNW,292,0.0,11.0,36,0.00,CLR,,0.00,WeatherDisplay:10.37,2013-10-08 21:30:00,
2013-10-08 17:00:00,53.6,33.3,29.68,WNW,292,0.0,2.0,46,0.00,CLR,,0.00,WeatherDisplay:10.37,2013-10-08 22:00:00,
2013-10-08 17:30:00,59.8,32.8,29.68,SSW,202,1.0,10.0,36,0.00,CLR,,0.00,WeatherDisplay:10.37,2013-10-08 22:30:00,
2013-10-08 18:00:00,55.4,34.4,29.68,SSW,202,0.0,2.0,45,0.00,CLR,,0.00,WeatherDisplay:10.37,2013-10-08 23:00:00,
2013-10-08 18:30:00,51.0,34.5,29.72,SSW,202,0.0,1.0,53,0.00,CLR,,0.00,WeatherDisplay:10.37,2013-10-08 23:30:00,
2013-10-08 19:00:00,47.1,33.5,29.75,SSW,202,0.0,2.0,59,0.00,CLR,,0.00,WeatherDisplay:10.37,2013-10-09 00:00:00,
2013-10-08 19:30:00,45.5,34.0,29.79,SSW,202,0.0,2.0,64,0.00,CLR,,0.00,WeatherDisplay:10.37,2013-10-09 00:30:00,
2013-10-08 20:00:00,44.1,33.8,29.81,SSW,202,0.0,1.0,67,0.00,CLR,,0.00,WeatherDisplay:10.37,2013-10-09 01:00:00,
2013-10-08 20:30:00,42.6,33.5,29.84,SSW,202,0.0,1.0,70,0.00,CLR,,0.00,WeatherDisplay:10.37,2013-10-09 01:30:00,
2013-10-08 21:00:00,41.9,33.2,29.85,SSW,202,0.0,2.0,71,0.00,CLR,,0.00,WeatherDisplay:10.37,2013-10-09 02:00:00,
2013-10-08 21:30:00,43.3,34.9,29.85,SSW,202,0.0,1.0,72,0.00,CLR,,0.00,WeatherDisplay:10.37,2013-10-09 02:30:00,
2013-10-08 22:00:00,54.4,39.0,29.81,SSW,202,0.0,4.0,56,0.00,CLR,,0.00,WeatherDisplay:10.37,2013-10-09 03:00:00,
2013-10-08 22:30:00,64.2,40.0,29.77,SSW,202,0.0,1.0,41,0.00,CLR,,0.00,WeatherDisplay:10.37,2013-10-09 03:30:00,
2013-10-08 23:00:00,69.3,35.7,29.74,South,180,1.0,5.0,29,0.00,CLR,,0.00,WeatherDisplay:10.37,2013-10-09 04:00:00,
2013-10-08 23:30:00,71.3,36.5,29.73,ESE,112,2.0,6.0,28,0.00,CLR,,0.00,WeatherDisplay:10.37,2013-10-09 04:30:00,